Hourly Data Report for October 21, 2003

TORONTO CITY
ONTARIO

43°40'00.000" N
79°24'00.000" W
112.50 m
6158355
71508
XTO

Download Data

Hourly Data (October 2003)
Hourly Data Report for October 21, 2003
TIME
LST
Temp Definition
°C
Dew Point Definition
°C
Rel Hum Definition
%
Precip. Amount Definition
mm

Wind Dir Definition
10's deg

Wind Spd Definition
km/h
Visibility Definition
km
Stn Press Definition
kPa
Hmdx Definition


Wind Chill Definition


Weather Definition


00:00 13.6 10.9 84   LegendMM LegendMM LegendMM 98.29     LegendNANA
01:00 14.2 11.6 84   LegendMM LegendMM LegendMM 98.10     LegendNANA
02:00 18.5 12.3 67   LegendMM LegendMM LegendMM 98.00     LegendNANA
03:00 17.5 11.9 70   LegendMM LegendMM LegendMM 97.97     LegendNANA
04:00 17.5 11.3 67   LegendMM LegendMM LegendMM 98.04     LegendNANA
05:00 16.4 11.4 72   LegendMM LegendMM LegendMM 98.10     LegendNANA
06:00 14.8 11.2 79   LegendMM LegendMM LegendMM 98.21     LegendNANA
07:00 13.4 9.9 79   LegendMM LegendMM LegendMM 98.32     LegendNANA
08:00 11.8 8.7 81   LegendMM LegendMM LegendMM 98.45     LegendNANA
09:00 10.7 8.0 83   LegendMM LegendMM LegendMM 98.61     LegendNANA
10:00 10.4 7.6 83   LegendMM LegendMM LegendMM 98.69     LegendNANA
11:00 LegendMM LegendMM LegendMM   LegendMM LegendMM LegendMM LegendMM     LegendNANA
12:00 9.8 6.7 81   LegendMM LegendMM LegendMM 98.82     LegendNANA
13:00 9.9 6.3 78   LegendMM LegendMM LegendMM 98.84     LegendNANA
14:00 9.2 6.3 82   LegendMM LegendMM LegendMM 98.86     LegendNANA
15:00 9.3 6.4 82   LegendMM LegendMM LegendMM 98.88     LegendNANA
16:00 9.0 5.7 80   LegendMM LegendMM LegendMM 98.91     LegendNANA
17:00 8.9 5.4 79   LegendMM LegendMM LegendMM 98.97     LegendNANA
18:00 8.1 5.4 83   LegendMM LegendMM LegendMM 99.06     LegendNANA
19:00 8.1 5.2 82   LegendMM LegendMM LegendMM 99.11     LegendNANA
20:00 7.8 5.0 82   LegendMM LegendMM LegendMM 99.12     LegendNANA
21:00 6.7 5.2 90   LegendMM LegendMM LegendMM 99.16     LegendNANA
22:00 6.4 4.5 88   LegendMM LegendMM LegendMM 99.18     LegendNANA
23:00 5.6 2.9 83   LegendMM LegendMM LegendMM 99.20     LegendNANA

Notes on Data Quality.

Legend

  • E = Estimated
  • M = Missing
  • NA = Not Available*
  • [empty] = Indicates an unobserved value
Date modified: